Dewpoint
21 21 19 19 21 21 20 20 12 12 10 8 10 12 16 18 26 31 37 36 34 33 32 32 33 34 33 33 33 32 33 33 35 36 36 37 37 36 36 35 34 34 33 31
14 15 19 18 18 18 20 22 17 16 10 13 13 13 13 18 19 30 37 37 35 33 32 32 33 33 33 33 33 32 32 32 34 35 35 35 36 36 35 35 34 33 33 31
12 11 10 16 19 18 17 18 19 16 15 11 10 13 16 18 21 22 37 37 35 33 33 32 32 33 33 33 32 31 31 32 33 34 34 35 35 35 35 34 34 34 33 33
10 11 11 10 16 15 15 15 16 15 15 14 13 14 16 17 28 28 30 37 36 34 33 33 33 33 33 32 31 31 30 31 33 33 34 34 34 34 35 35 34 34 33 33
7 8 9 9 10 12 11 15 22 26 28 27 27 24 16 19 22 31 34 37 37 36 35 34 33 33 33 32 31 31 30 31 32 32 33 33 33 34 35 34 33 32 32 32
8 6 5 7 8 10 12 13 29 28 28 28 31 27 24 24 25 32 38 39 38 36 36 34 33 33 33 31 30 30 30 30 31 32 32 32 33 34 34 34 32 30 30 32
9 8 6 8 9 11 8 17 23 25 22 24 28 30 32 32 31 32 39 39 38 37 36 34 34 33 33 32 30 30 30 30 30 31 31 32 33 33 33 32 30 29 30 29
17 16 10 7 16 26 27 27 25 21 22 18 19 28 28 31 33 35 39 39 38 37 36 35 34 33 33 32 32 31 29 29 30 30 29 31 33 32 31 30 29 28 30 30
16 13 20 22 21 25 31 20 28 19 23 23 16 17 24 26 29 31 36 38 38 37 36 36 34 33 33 33 32 31 29 28 29 29 28 31 31 31 29 29 30 30 30 30
4 5 5 11 24 15 15 26 31 21 13 22 19 16 18 22 25 27 32 36 37 37 36 36 35 34 34 33 32 30 28 28 29 28 29 30 30 29 29 30 31 29 30 30
5 6 6 6 6 9 11 12 15 13 9 12 18 17 15 18 19 25 27 31 35 37 36 36 35 34 34 33 31 29 28 28 28 28 29 28 29 28 29 29 31 29 29 29
8 7 7 7 7 5 6 6 6 7 8 8 16 19 16 17 16 22 25 29 32 36 37 36 34 34 33 32 30 29 27 28 28 27 28 28 28 26 27 27 26 26 29 26
8 8 8 8 8 7 6 7 6 7 7 6 8 16 17 13 15 19 24 29 32 36 37 36 34 33 33 32 31 28 27 28 28 27 28 29 28 26 23 22 24 24 24 22
10 9 8 8 7 7 7 7 8 7 7 6 7 9 15 14 13 17 24 28 33 34 36 36 34 33 33 32 31 28 28 28 27 28 28 29 28 28 26 23 21 20 22 21
12 11 10 9 8 8 8 8 8 7 7 7 8 9 13 18 17 17 23 24 33 34 36 36 34 33 34 32 30 28 28 27 28 29 29 29 29 28 26 24 20 17 19 18
9 11 10 9 9 9 9 9 9 8 9 10 9 9 10 12 14 16 22 23 34 35 34 36 34 34 34 33 30 29 28 27 28 29 30 29 29 28 25 22 19 18 16 17
8 9 11 12 14 16 14 12 9 9 11 10 10 11 9 11 14 16 21 25 38 36 35 36 35 35 34 32 29 29 29 28 29 30 29 29 29 28 26 24 21 19 17 17
10 12 13 15 18 19 20 21 20 15 13 12 12 13 12 13 16 17 23 29 39 37 35 36 35 35 34 31 30 30 29 29 30 30 30 30 30 29 28 27 24 21 23 19
21 21 23 26 26 27 27 26 26 22 17 15 15 15 15 17 19 22 26 33 34 36 36 36 34 34 33 31 31 31 30 30 31 31 30 31 31 29 28 26 24 25 21 18
21 20 21 24 25 25 26 29 30 28 18 17 14 14 18 18 18 22 29 27 29 37 39 36 34 34 33 31 32 32 31 31 32 31 31 30 29 28 27 26 26 26 22 20
13 14 17 25 27 28 27 28 31 29 20 17 19 20 23 26 27 30 30 27 30 38 40 34 35 35 33 32 33 32 32 32 31 31 31 30 29 28 27 27 27 24 21 20
13 15 17 23 29 31 32 33 34 30 20 17 15 16 17 19 24 32 33 27 33 39 38 36 36 35 33 32 33 33 33 32 32 32 31 31 29 29 28 28 27 26 23 23
14 18 26 29 30 31 36 32 30 25 20 19 18 17 15 18 23 28 30 35 38 39 38 37 36 33 32 33 34 33 33 32 33 31 32 31 30 29 28 28 28 27 26 26
23 25 29 32 31 31 34 26 22 19 20 20 19 19 22 24 25 27 32 36 39 37 38 37 34 32 32 34 34 34 33 33 33 32 32 31 31 30 29 28 28 27 27 26
29 30 30 31 32 35 27 18 18 19 18 18 20 22 21 22 28 34 38 39 37 37 37 34 32 32 34 35 34 34 34 34 33 32 31 31 30 29 29 28 28 27 27 25
28 29 32 34 28 22 19 16 18 20 20 22 22 25 26 25 27 36 39 39 36 36 37 33 33 33 35 35 35 34 34 33 32 31 31 30 30 29 29 28 28 27 26 25
30 33 32 34 20 20 20 19 21 22 23 23 22 23 31 34 35 38 38 37 36 36 34 34 33 34 36 35 34 34 33 32 32 31 30 30 30 29 28 28 27 27 26 25
Wind_Speed
26 29 34 32 32 29 30 30 28 28 32 32 30 33 19 17 25 8 34 37 37 35 33 33 31 29 27 25 25 24 23 22 21 19 18 16 16 15 14 14 13 13 14 14
29 28 31 36 33 31 29 30 32 33 35 28 24 29 28 10 13 34 38 40 36 34 34 33 33 31 30 28 28 26 24 23 22 21 20 18 16 15 14 14 13 13 13 14
31 27 29 26 37 33 33 31 30 29 26 26 29 23 25 16 20 22 36 35 36 38 36 33 32 31 29 28 27 27 25 25 23 23 22 19 17 16 15 15 13 13 13 15
28 24 29 29 25 30 32 33 33 33 33 32 26 22 17 19 22 32 15 31 34 33 33 31 30 30 28 28 27 26 26 26 24 24 23 21 19 18 16 14 14 13 12 16
24 27 28 35 25 30 26 27 20 22 25 31 33 27 19 24 16 16 16 27 33 31 31 30 32 30 29 28 28 26 27 27 26 25 25 23 21 19 17 16 14 13 11 12
23 26 29 32 28 35 32 33 19 23 24 29 31 15 14 21 13 5 20 23 29 32 31 33 34 35 35 32 31 30 28 28 26 25 24 23 22 21 16 15 15 13 12 10
29 28 21 25 31 31 26 16 17 16 22 26 27 24 31 27 3 15 26 24 29 32 36 37 36 34 33 30 30 27 26 26 26 25 24 23 22 17 18 17 16 15 15 12
8 15 29 15 12 7 13 15 13 18 21 26 31 31 31 30 17 7 12 20 28 32 36 36 37 36 35 34 29 26 26 26 25 24 22 21 22 20 18 17 17 16 15 13
7 12 22 28 24 8 16 17 19 15 20 26 30 35 32 28 28 28 16 20 23 28 32 32 35 35 35 31 31 30 29 28 27 25 22 23 22 20 18 18 16 15 15 14
27 35 31 18 9 17 18 14 16 27 15 19 29 33 32 25 26 25 12 16 18 24 29 32 34 33 31 31 32 33 32 29 28 27 25 23 20 19 17 18 17 16 16 15
39 38 29 31 26 19 16 18 18 24 23 17 24 30 33 24 25 23 23 19 19 22 26 29 32 32 31 33 33 33 30 29 28 25 26 24 19 14 17 6 12 16 15 16
41 27 28 30 30 31 30 30 29 27 27 23 19 27 33 25 25 25 23 26 15 23 24 27 31 32 32 33 35 34 31 28 27 26 25 22 19 17 23 16 19 20 15 19
34 30 30 34 35 36 35 32 33 32 26 26 22 18 30 26 26 27 23 23 18 20 24 28 33 32 32 33 34 33 31 31 28 27 26 23 21 21 22 13 20 22 24 21
32 31 35 36 32 31 31 31 33 31 30 24 21 21 24 28 29 26 23 25 22 11 24 29 33 34 34 35 35 33 30 30 30 28 26 24 22 20 19 20 19 12 14 18
36 35 39 40 38 37 35 34 36 34 31 29 23 23 20 28 28 26 24 27 26 13 14 27 33 33 33 36 35 34 30 28 27 26 24 24 22 20 18 17 17 17 16 11
32 34 34 38 39 39 36 35 36 36 34 29 27 27 25 26 29 30 25 27 25 17 21 24 32 31 34 36 33 31 29 29 27 25 25 25 23 22 21 20 19 19 17 16
38 37 33 37 36 37 39 36 36 35 33 33 31 27 25 25 28 28 24 25 27 17 21 17 29 30 35 36 34 28 29 29 29 26 27 25 25 24 23 22 21 19 18 18
31 34 35 36 37 39 44 42 40 38 37 34 28 28 28 26 28 26 22 22 21 13 20 18 28 30 35 36 33 28 27 30 28 28 27 26 25 23 23 22 21 20 17 19
27 30 32 38 39 43 46 43 40 41 36 35 32 29 24 25 23 23 21 20 22 19 18 21 28 35 35 34 31 26 29 29 26 25 25 26 24 23 22 21 21 20 19 20
29 29 40 47 46 43 44 43 43 40 37 34 32 34 35 32 30 25 20 24 22 18 14 21 31 32 34 33 32 28 29 30 27 26 25 26 25 23 21 22 21 20 19 19
41 49 47 42 45 47 48 48 45 41 39 35 29 33 25 19 21 19 19 22 26 19 17 30 30 28 29 29 30 27 28 28 27 26 27 26 24 23 22 21 21 20 19 19
40 37 42 41 41 42 41 45 41 42 38 38 39 34 23 24 22 22 23 25 18 20 18 24 27 32 28 33 27 27 27 28 27 25 25 25 26 25 24 22 22 20 19 19
44 41 42 42 39 39 34 26 32 36 35 35 33 33 35 29 24 23 23 24 21 20 21 23 29 33 37 32 27 27 28 28 27 27 25 26 25 25 24 23 21 21 20 19
46 46 44 37 41 35 27 29 28 29 30 29 32 32 27 25 25 24 20 21 25 26 24 25 30 36 38 30 27 27 27 26 25 25 24 25 23 22 22 22 21 20 18 18
41 40 43 38 25 13 23 23 24 25 27 30 28 30 30 27 24 19 21 19 25 30 24 30 35 38 32 27 27 26 26 25 25 25 26 25 24 23 22 21 21 20 19 18
41 35 32 29 13 14 15 20 21 22 24 25 25 21 27 26 24 20 20 21 24 28 24 26 30 33 28 26 26 26 26 25 26 25 25 24 23 22 22 20 20 20 19 18
34 34 19 23 7 14 17 18 18 21 22 23 24 26 21 24 23 22 22 23 25 25 23 25 28 30 25 26 26 26 25 25 25 25 23 24 22 22 22 21 20 18 18 17
Wind_Direction
289 287 290 294 294 293 288 291 261 254 255 252 264 276 289 248 181 230 163 167 175 175 173 172 171 170 173 172 168 167 161 161 159 152 147 147 146 143 140 136 130 128 119 105
288 288 289 287 283 278 272 268 269 280 256 267 253 259 272 251 250 194 176 189 176 174 172 175 172 171 174 174 171 166 164 163 159 151 149 149 146 139 138 128 133 132 126 115
274 288 287 280 260 264 268 270 278 282 292 263 269 272 277 276 184 262 176 180 176 176 174 173 173 172 175 173 167 167 166 161 159 156 152 152 146 148 143 143 141 129 124 109
267 284 261 253 275 273 271 273 280 277 276 284 286 281 269 256 167 233 225 179 175 175 172 172 169 169 168 169 171 168 165 161 162 157 154 155 155 154 150 144 142 137 135 122
246 251 267 275 256 261 258 285 333 348 346 346 342 335 293 284 247 237 204 173 173 173 165 167 165 166 166 169 172 172 169 165 164 161 158 159 159 155 150 151 148 140 139 136
244 253 252 261 262 267 278 275 19 1 1 354 344 338 321 298 236 219 191 163 159 163 164 165 170 168 169 174 176 176 171 166 164 164 161 161 156 157 157 153 143 148 139 113
232 239 261 274 292 298 276 279 49 8 8 356 346 336 323 342 28 230 170 166 163 167 172 173 171 169 172 174 179 175 167 165 163 164 162 160 153 155 154 155 150 142 136 146
252 265 247 260 307 353 1 9 12 11 5 350 338 335 340 348 3 43 133 167 178 176 172 170 172 171 173 176 172 168 165 165 163 162 161 159 155 154 159 150 147 150 143 154
279 261 302 325 323 321 327 341 343 7 349 348 336 330 335 340 344 343 168 183 193 179 173 173 175 176 173 173 166 164 165 166 164 161 162 157 155 157 159 151 157 161 159 160
289 269 277 282 287 307 324 335 334 322 358 341 322 322 322 337 337 335 328 185 201 187 181 176 176 177 172 168 166 164 166 166 164 163 155 157 158 164 160 164 168 169 169 162
277 276 294 288 293 302 315 308 297 301 317 324 314 310 314 325 324 326 327 326 189 195 185 181 174 172 170 169 165 165 167 165 165 163 157 158 156 165 167 112 179 170 168 156
262 286 288 291 298 299 300 300 300 302 304 304 309 309 306 311 314 318 325 319 294 185 185 178 173 172 171 169 166 165 166 168 167 161 159 157 132 97 73 100 93 108 112 126
272 277 280 282 287 288 289 291 291 288 289 293 290 288 297 309 307 308 310 306 288 192 185 176 172 174 171 170 168 170 170 168 165 164 164 151 143 139 132 84 79 84 105 113
269 279 276 273 277 279 279 283 288 290 287 283 288 288 295 298 300 303 304 301 297 220 190 176 173 177 173 171 171 171 172 170 166 166 166 157 153 149 146 147 143 125 103 117
267 271 269 271 274 274 275 277 277 276 277 281 281 288 295 296 293 298 298 302 304 204 213 176 176 180 171 169 172 171 169 170 169 166 164 160 153 147 146 149 148 143 131 127
259 259 260 264 265 265 265 267 262 264 269 267 268 271 272 279 285 288 290 293 298 200 208 184 180 179 167 170 171 169 167 168 167 164 159 157 154 152 155 160 158 159 162 164
271 271 275 277 280 279 276 272 259 260 258 256 259 266 263 264 271 277 281 286 311 202 201 201 180 179 166 169 170 170 165 166 169 164 163 163 160 160 163 165 164 164 167 166
272 272 274 277 282 277 272 269 265 256 248 250 250 248 246 248 250 261 271 296 314 234 195 192 176 160 164 169 169 167 168 168 169 167 166 163 162 161 165 165 161 159 151 158
300 291 289 279 274 271 269 266 258 256 243 238 234 237 245 249 249 257 263 283 304 290 191 177 165 161 166 169 166 165 165 167 169 168 165 159 157 161 162 160 159 152 147 156
277 284 286 278 273 267 268 262 257 252 231 227 229 240 232 227 236 247 254 267 272 277 196 164 160 166 169 167 161 164 168 167 168 168 161 159 159 159 158 158 155 146 152 161
299 290 277 269 268 266 262 257 249 240 224 214 209 213 211 203 219 221 234 251 260 257 200 166 166 168 169 161 158 166 167 165 166 166 163 160 156 154 155 155 153 151 153 160
283 286 282 279 273 269 264 261 232 219 213 211 214 221 221 224 220 218 224 234 246 223 177 171 167 167 164 159 162 166 168 165 163 162 163 158 156 155 156 157 158 155 157 164
291 290 289 283 276 276 266 213 207 207 202 205 206 211 218 219 220 219 228 226 226 198 171 171 168 163 156 163 164 167 167 165 161 166 164 159 158 157 158 161 159 157 160 161
298 297 293 290 287 279 216 205 192 197 198 199 201 205 203 206 215 220 219 217 195 178 176 168 162 158 160 167 164 167 166 163 163 164 159 154 154 155 156 157 157 158 158 160
297 300 300 301 285 215 191 182 183 190 193 198 204 202 206 211 212 212 195 192 177 169 169 161 158 160 165 165 164 166 161 160 163 159 158 155 157 156 157 158 157 158 161 163
301 307 303 291 230 194 187 178 186 184 189 190 195 194 196 204 205 202 185 173 171 171 160 161 164 163 163 159 160 159 157 158 159 158 154 155 156 155 156 155 156 160 161 161
307 316 305 304 213 185 179 186 191 184 181 185 191 194 197 189 191 182 175 163 168 166 155 163 164 161 156 157 157 155 156 159 157 154 152 153 153 154 156 157 158 156 157 161